Weather History for Scappoose, OR

Change the Weather History Date:

Monday, September 9, 2013

  Actual Average Record
Temperature  
Mean Temperature 72 °F -  
Max Temperature 84 °F - 91 °F (2011)
Min Temperature 60 °F - 45 °F (2000)
Degree Days  
Heating Degree Days 0    
Month to date heating degree days 0  
Since 1 July heating degree days 24  
Cooling Degree Days 7    
Month to date cooling degree days 36  
Year to date cooling degree days 360  
Growing Degree Days 22 (Base 50)    
Moisture  
Dew Point 59 °F    
Average Humidity 67    
Maximum Humidity 90    
Minimum Humidity 44    
Precipitation  
Precipitation 0.00 in - 0.74 in (2003)
Month to date precipitation 1.96  
Year to date precipitation 16.50  
Sea Level Pressure  
Sea Level Pressure 29.98 in    
Wind  
Wind Speed 7 mph (North)    
Max Wind Speed 15 mph    
Max Gust Speed 20 mph    
Visibility 10 miles    
Events      
T = Trace of Precipitation, MM = Missing Value Source: NWS Daily Summary

Daily Weather History Graph

Daily Weather History Graph

Search for Another Location

Airport:

Trip Planner

Search our weather history database for the weather conditions in past years. The results will help you decide how hot, cold, wet, or windy it might be!

Date:

Astronomy

Sep. 09, 2013 Rise Set
Actual Time 6:42 AM PDT 7:33 PM PDT
Civil Twilight 6:12 AM PDT 8:03 PM PDT
Nautical Twilight 5:36 AM PDT 8:39 PM PDT
Astronomical Twilight 4:58 AM PDT 9:17 PM PDT
Moon 11:26 AM PDT (9/9) 9:37 PM PDT (9/9)
Length of Visible Light 13h 51m
Length of Day
12h 50m
Waxing Crescent, 20% of the Moon is Illuminated
Sep 9
Waxing Crescent
Sep 12
First Quarter
Sep 19
Full
Sep 26
Last Quarter
Oct 4
New

Hourly Weather History & Observations

Time (PDT) Temp. Heat Index Dew Point Humidity Pressure Visibility Wind Dir Wind Speed Gust Speed Precip Events Conditions
12:53 AM 64.9 °F - 59.0 °F 81% 30.01 in 10.0 mi North 5.8 mph - N/A   Clear
1:53 AM 64.0 °F - 59.0 °F 84% 30.01 in 10.0 mi NNE 3.5 mph - N/A   Clear
2:53 AM 61.0 °F - 57.9 °F 90% 30.01 in 10.0 mi Calm Calm - N/A   Clear
3:53 AM 62.1 °F - 57.9 °F 86% 30.01 in 10.0 mi NNE 4.6 mph - N/A   Clear
4:53 AM 61.0 °F - 57.0 °F 87% 30.01 in 10.0 mi North 8.1 mph - N/A   Clear
5:53 AM 61.0 °F - 55.9 °F 83% 30.02 in 10.0 mi North 6.9 mph - N/A   Clear
6:51 AM 60.8 °F - 55.4 °F 82% 30.02 in 10.0 mi North 4.6 mph - N/A   Mostly Cloudy
6:53 AM 60.1 °F - 55.9 °F 86% 30.03 in 10.0 mi North 5.8 mph - N/A   Mostly Cloudy
7:27 AM 60.8 °F - 55.4 °F 82% 30.02 in 10.0 mi North 5.8 mph - N/A   Partly Cloudy
7:53 AM 61.0 °F - 55.9 °F 83% 30.03 in 10.0 mi North 9.2 mph - N/A   Clear
8:53 AM 63.0 °F - 57.0 °F 81% 30.03 in 10.0 mi NNE 8.1 mph - N/A   Clear
9:53 AM 66.0 °F - 57.9 °F 75% 30.03 in 10.0 mi NNE 8.1 mph - N/A   Clear
10:53 AM 69.1 °F - 57.9 °F 68% 30.03 in 10.0 mi NE 8.1 mph - N/A   Clear
11:53 AM 72.0 °F - 60.1 °F 66% 30.02 in 10.0 mi ENE 6.9 mph - N/A   Clear
12:53 PM 75.0 °F - 62.1 °F 64% 30.00 in 10.0 mi SSE 4.6 mph - N/A   Clear
1:53 PM 81.0 °F 81.3 °F 59.0 °F 47% 29.97 in 10.0 mi North 11.5 mph - N/A   Clear
2:53 PM 82.0 °F 82.4 °F 60.1 °F 47% 29.95 in 10.0 mi North 11.5 mph - N/A   Clear
3:53 PM 84.0 °F 84.4 °F 61.0 °F 46% 29.94 in 10.0 mi North 8.1 mph 17.3 mph N/A   Clear
4:53 PM 82.9 °F 83.2 °F 60.1 °F 46% 29.93 in 10.0 mi North 10.4 mph - N/A   Clear
5:53 PM 81.0 °F 81.9 °F 62.1 °F 52% 29.93 in 10.0 mi NW 8.1 mph - N/A   Clear
6:53 PM 78.1 °F - 63.0 °F 60% 29.92 in 10.0 mi NW 8.1 mph - N/A   Clear
7:53 PM 75.0 °F - 62.1 °F 64% 29.92 in 10.0 mi Calm Calm - N/A   Clear
8:53 PM 73.0 °F - 62.1 °F 68% 29.93 in 10.0 mi NW 4.6 mph - N/A   Clear
9:53 PM 71.1 °F - 62.1 °F 73% 29.93 in 10.0 mi NW 5.8 mph - N/A   Clear
10:53 PM 70.0 °F - 61.0 °F 73% 29.92 in 10.0 mi NNW 5.8 mph - N/A   Clear
11:53 PM 70.0 °F - 60.1 °F 71% 29.92 in 10.0 mi North 3.5 mph - N/A   Clear